Location: Gorze? G�rny
(49.8500°N, 19.5000°E)
Time: 02:31:50
(UTC+00:00)

Cosmos 1340 Rocket - Pass Details

Date: 13 May 2021
Orbit: 527 x 559 km, 81.2° (Epoch: 23 June)

Event Time Altitude Azimuth Distance (km) Brightness Sun altitude
Rises 20:36:00 0° 348° (NNW) 2,761 7.8 -16.4°
Reaches altitude 10° 20:38:12 10° 349° (NNW) 1,859 6.7 -16.6°
Maximum altitude 20:42:18 87° 74° (ENE) 566 2.8 -16.9°
Enters shadow 20:43:56 36° 166° (SSE) 901 3.4 -17.0°
